Hlavní strana
METAR-TAF:

METAR-TAF

Letiště :

Flora Municipal Airport

Flora, Illinois, Spojené státy americké

zeměpisná šířka: 38-39-54N, zeměpisná délka: 088-27-11W, výška: 144 m

Aktuální stav počasí

Zpráva byla vytvořena před 26 minutami, v 08:35 UTC
Severozápadní vítr 4 kt
Teplota -1°C
Vlhkost vzduchu 93%
Tlak 1014 hPa
Viditelnost: 8.0 km
Oblačno až skoro zataženo ve výšce 6000 ft
kouřmo

METAR: KFOA 270835Z AUTO 31004KT 5SM BR BKN060 M01/M02 A2993 RMK AO2 TSNO

Čas: 03:01 (09:01 UTC)


TAF: chybějící

Stav a předpovědi počasí z více než 4 000 letišť (zprávy METAR a TAF).

Červené a žluté tečky na mapě představují dostupné meteorologické stanice.

Když kurzor umístíte na tečku, zobrazí se název stanice.

Pak kliknutím zobrazíte stav a předpověď počasí.

Chcete-li změnit mapu, kliknutím na zelené tlačítko se znaménkem +mapu přiblížíte, kliknutím na zelené tlačítko se znaménkem – mapu oddálíte a kliknutím na zelené šipky přejdete na sousední mapy.


METAR-TAF: